Location: St. Louis
(38.6270°N, 90.1994°W)
Time: 04:04:08
(UTC-06:00)

Tiros 1 - Pass Details

Date: 08 December 2021
Orbit: 630 x 663 km, 48.4° (Epoch: 20 January)

Event Time Altitude Azimuth Distance (km) Brightness Sun altitude
Rises 19:18:53 0° 289° (WNW) 2,924 11.5 -30.4°
Reaches altitude 10° 19:21:35 10° 303° (WNW) 2,020 10.3 -30.9°
Enters shadow 19:23:27 19° 323° (NW) 1,531 9.3 -31.3°
